• Processing (Info)

  • MPEC 2011-F36 : 2011 FS6

    The following Minor Planet Electronic Circular may be linked-to from your own Web pages, but must not otherwise be redistributed electronically.

    A form allowing access to any MPEC is at the bottom of this page.


    Read MPEC 2011-F35 Read MPEC 2011-F37


    M.P.E.C. 2011-F36                                Issued 2011 Mar. 28, 06:32 UT
    
         The Minor Planet Electronic Circulars contain information on unusual
             minor planets and routine data on comets.  They are published
       on behalf of Commission 20 of the International Astronomical Union by the
              Minor Planet Center, Smithsonian Astrophysical Observatory,
                              Cambridge, MA 02138, U.S.A.
    
                 Prepared using the Tamkin Foundation Computer Network
    
                                  MPC@CFA.HARVARD.EDU
                URL https://www.minorplanetcenter.net/    ISSN 1523-6714
    
                                       2011 FS6
    
    Observations:
         K11F06S* C2011 03 26.24001 12 08 51.64 +18 13 36.8          21.5 VrEF036G96
         K11F06S  C2011 03 26.24872 12 08 52.87 +18 13 37.5          21.4 VrEF036G96
         K11F06S  C2011 03 26.25748 12 08 54.02 +18 13 40.0          21.8 VrEF036G96
         K11F06S  C2011 03 26.26626 12 08 55.21 +18 13 41.0          21.5 VrEF036G96
         K11F06S  C2011 03 26.28403 12 08 57.58 +18 13 43.7          22.0 VrEF036G96
         K11F06S  C2011 03 26.29379 12 08 58.92 +18 13 45.5          22.0 VrEF036G96
         K11F06S  C2011 03 26.30339 12 09 00.18 +18 13 46.5          21.8 VrEF036G96
         K11F06S  C2011 03 26.39811 12 09 13.03 +18 13 58.1          22.2 VoEF036291
         K11F06S HC2011 03 26.40203 12 09 13.58 +18 13 58.2                oEF036291
         K11F06S  C2011 03 26.40619 12 09 14.14 +18 13 58.8          21.9 VoEF036291
         K11F06S HC2011 03 27.27063 12 11 30.68 +18 15 40.5                oEF036291
         K11F06S HC2011 03 27.27757 12 11 31.72 +18 15 40.6                oEF036291
         K11F06S  C2011 03 27.28152 12 11 32.27 +18 15 41.9          21.8 VoEF036291
         K11F06S  C2011 03 28.24512 12 14 06.98 +18 16 46.7          21.9 VoEF036291
         K11F06S  C2011 03 28.24915 12 14 07.52 +18 16 47.0          21.7 VoEF036291
         K11F06S HC2011 03 28.25322 12 14 08.16 +18 16 48.1                oEF036291
    
    Observer details:
    291 LPL/Spacewatch II.  Observers T. H. Bressi, R. S. McMillan.  1.8-m f/2.7
        reflector + CCD.
    G96 Mt. Lemmon Survey.  Observer R. A. Kowalski.  Measurers J. D. Ahern,
        E. C. Beshore, A. Boattini, G. J. Garradd, A. R. Gibbs, A. D. Grauer,
        R. E. Hill, R. A. Kowalski, S. M. Larson, R. H. McNaught.  1.5-m reflector
        + CCD.
    
    Orbital elements:
    2011 FS6                                                 Earth MOID = 0.1373 AU
    Epoch 2011 Feb. 8.0 TT = JDT 2455600.5                  MPC
    M 340.56299              (2000.0)            P               Q
    n   0.27685003     Peri.  103.15669     -0.88839866     +0.45681582
    a   2.3315228      Node   104.04077     -0.43725759     -0.81185462
    e   0.5141365      Incl.    2.68620     -0.13983425     -0.36360883
    P   3.56           H   24.3           G   0.15           U   8
    Residuals in seconds of arc
    110326 G96  0.3-  0.3+    110326 G96  0.1-  0.1-    110327 291  0.4+  0.3+
    110326 G96  0.5+  0.5-    110326 291  0.1-  0.1+    110328 291  0.1+  0.2-
    110326 G96  0.0   0.5+    110326 291  0.1+  0.2-    110328 291  0.5-  0.2-
    110326 G96  0.1+  0.1+    110326 291  0.1-  0.1+    110328 291  0.3+  0.6+
    110326 G96  0.1-  0.0     110327 291  0.7-  0.1+
    110326 G96  0.3+  0.3+    110327 291  0.4+  0.6-
    
    Ephemeris:
    2011 FS6                 a,e,i = 2.33, 0.51, 3                   q = 1.1328
    Date    TT    R. A. (2000) Decl.     Delta      r     Elong.  Phase     V
    2011 02 26    11 22 08.7 +14 30 39   0.2940  1.2783   167.1    10.0    22.8
    ...
    2011 03 13    11 41 46.4 +16 51 33   0.2220  1.2104   166.1    11.4    22.1
    ...
    2011 03 21    11 56 38.0 +17 51 42   0.1935  1.1816   162.2    15.0    21.9
    ...
    2011 03 27    12 10 47.5 +18 15 25   0.1761  1.1640   159.3    17.7    21.8
    2011 03 28    12 13 26.1 +18 16 48   0.1735  1.1614   158.8    18.1    21.8
    2011 03 29    12 16 09.7 +18 17 17   0.1711  1.1590   158.4    18.5    21.7
    ...
    2011 04 04    12 34 20.5 +17 58 52   0.1580  1.1464   156.3    20.6    21.6
    ...
    2011 04 12    13 03 15.3 +16 24 02   0.1458  1.1359   154.8    22.0    21.5
    ...
    2011 04 27    14 05 28.9 +09 27 28   0.1400  1.1364   156.8    20.4    21.3
    
    Carl W. Hergenrother         (C) Copyright 2011 MPC           M.P.E.C. 2011-F36
    

    Read MPEC 2011-F35 Read MPEC 2011-F37


    MPEC number:

    Enter an MPEC number in one of the following forms:

    • 1997-B01 (the full form)
    • J97B01 (the packed version of the full form)
    • B01 (the abbreviated form)